When you browse on this site, cookies collect data to enhance your experience and personalize the content and advertising you see.
Visit our Privacy Policy to learn more. By continuing to use the site, you agree to this use of cookies and data.
  • In Germany
  • List of Countries
  • For 7 days
  • Water Temperature
  • Satellite Maps
  • Weather Map
  • Weather Widgets
  • user-avatar
    Login

    Hourly Weather Goiania

    Today, 19 November, Monday

    Time Temperature Precipitation Wind Pressure Humidity
    00:00 +22°C° 0.5 mm 0 mps 699 mmHg 89%
    01:00 +22°C° 0.3 mm 0 mps 698 mmHg 90%
    02:00 +23°C° 0.3 mm 1 mps 698 mmHg 91%
    03:00 +23°C° 0 mm 1 mps 698 mmHg 91%
    04:00 +23°C° 0.2 mm 1 mps 698 mmHg 92%
    05:00 +23°C° 0.2 mm 1 mps 698 mmHg 92%
    06:00 +23°C° 0.2 mm 1 mps 698 mmHg 92%
    07:00 +24°C° 0.3 mm 1 mps 698 mmHg 90%
    08:00 +25°C° 0.3 mm 1 mps 698 mmHg 87%
    09:00 +26°C° 0.3 mm 1 mps 699 mmHg 84%
    10:00 +27°C° 0.6 mm 1 mps 699 mmHg 80%
    11:00 +28°C° 0.6 mm 2 mps 699 mmHg 76%
    12:00 +29°C° 0.6 mm 2 mps 699 mmHg 72%
    13:00 +29°C° 1.4 mm 2 mps 698 mmHg 73%
    14:00 +29°C° 1.4 mm 2 mps 698 mmHg 75%
    15:00 +29°C° 1.4 mm 1 mps 697 mmHg 76%
    16:00 +28°C° 1.8 mm 1 mps 697 mmHg 80%
    17:00 +27°C° 1.8 mm 1 mps 697 mmHg 84%
    18:00 +26°C° 1.8 mm 1 mps 697 mmHg 88%
    19:00 +25°C° 1 mm 1 mps 697 mmHg 88%
    20:00 +25°C° 1 mm 1 mps 698 mmHg 88%
    21:00 +22°C° 1 mm 0 mps 698 mmHg 88%
    22:00 +22°C° 0.3 mm 0 mps 698 mmHg 89%
    23:00 +22°C° 0.3 mm 0 mps 698 mmHg 90%

    Tomorrow, 20 November, Tuesday

    Time Temperature Precipitation Wind Pressure Humidity
    00:00 +22°C° 0.3 mm 0 mps 698 mmHg 91%
    01:00 +21°C° 0.2 mm 0 mps 698 mmHg 91%
    02:00 +21°C° 0.2 mm 0 mps 697 mmHg 92%
    03:00 +21°C° 0.2 mm 0 mps 697 mmHg 93%
    04:00 +21°C° 0.2 mm 0 mps 697 mmHg 93%
    05:00 +21°C° 0.2 mm 0 mps 697 mmHg 93%
    06:00 +21°C° 0.2 mm 0 mps 697 mmHg 93%
    07:00 +21°C° 0.6 mm 0 mps 698 mmHg 93%
    08:00 +24°C° 0.6 mm 1 mps 699 mmHg 92%
    09:00 +24°C° 0.6 mm 1 mps 699 mmHg 92%
    10:00 +24°C° 0.5 mm 1 mps 699 mmHg 91%
    11:00 +24°C° 0.5 mm 1 mps 699 mmHg 91%
    12:00 +24°C° 0.5 mm 1 mps 699 mmHg 91%
    13:00 +26°C° 0.3 mm 2 mps 698 mmHg 86%
    14:00 +27°C° 0.3 mm 2 mps 698 mmHg 82%
    15:00 +28°C° 0.3 mm 2 mps 697 mmHg 77%
    16:00 +27°C° 0.8 mm 2 mps 697 mmHg 81%
    17:00 +26°C° 0.8 mm 1 mps 697 mmHg 85%
    18:00 +25°C° 0.8 mm 1 mps 697 mmHg 89%
    19:00 +25°C° 0.7 mm 1 mps 697 mmHg 90%
    20:00 +24°C° 0.7 mm 1 mps 698 mmHg 91%
    21:00 +24°C° 0.7 mm 1 mps 698 mmHg 92%
    22:00 +23°C° 0.9 mm 1 mps 698 mmHg 92%
    23:00 +23°C° 0.9 mm 1 mps 699 mmHg 93%

    Day after tomorrow, 21 November, Wednesday

    Time Temperature Precipitation Wind Pressure Humidity
    00:00 +23°C° 0.9 mm 1 mps 699 mmHg 93%
    01:00 +23°C° 2 mm 2 mps 698 mmHg 94%
    02:00 +23°C° 2 mm 2 mps 698 mmHg 94%
    03:00 +21°C° 2 mm 2 mps 697 mmHg 95%
    04:00 +21°C° 2.7 mm 2 mps 698 mmHg 95%
    05:00 +21°C° 2.7 mm 2 mps 698 mmHg 96%
    06:00 +21°C° 2.7 mm 2 mps 698 mmHg 96%
    07:00 +21°C° 3.3 mm 3 mps 699 mmHg 96%
    08:00 +21°C° 3.3 mm 3 mps 699 mmHg 96%
    09:00 +21°C° 3.3 mm 3 mps 700 mmHg 95%
    10:00 +22°C° 0.7 mm 3 mps 700 mmHg 93%
    11:00 +22°C° 0.7 mm 3 mps 700 mmHg 92%
    12:00 +24°C° 0.7 mm 3 mps 700 mmHg 90%
    13:00 +24°C° 0.5 mm 3 mps 699 mmHg 89%
    14:00 +24°C° 0.5 mm 3 mps 699 mmHg 88%
    15:00 +25°C° 0.5 mm 3 mps 698 mmHg 88%
    16:00 +24°C° 0.3 mm 3 mps 698 mmHg 89%
    17:00 +24°C° 0.3 mm 3 mps 698 mmHg 90%
    18:00 +22°C° 0.3 mm 3 mps 698 mmHg 91%
    19:00 +22°C° 0 mm 3 mps 698 mmHg 91%
    20:00 +21°C° 0 mm 3 mps 698 mmHg 92%
    21:00 +21°C° 0 mm 3 mps 699 mmHg 92%
    22:00 +21°C° 0 mm 3 mps 699 mmHg 92%
    23:00 +21°C° 0 mm 3 mps 699 mmHg 92%

    22 November, Thursday

    Time Temperature Precipitation Wind Pressure Humidity
    00:00 +21°C° 0 mm 3 mps 699 mmHg 92%
    01:00 +20°C° 0.2 mm 3 mps 698 mmHg 92%
    02:00 +20°C° 0.2 mm 3 mps 698 mmHg 93%
    03:00 +20°C° 0.2 mm 3 mps 697 mmHg 93%
    04:00 +20°C° 0 mm 3 mps 697 mmHg 93%
    05:00 +20°C° 0 mm 3 mps 698 mmHg 92%
    06:00 +20°C° 0 mm 3 mps 698 mmHg 92%
    07:00 +21°C° 0 mm 3 mps 698 mmHg 89%
    08:00 +22°C° 0 mm 3 mps 699 mmHg 86%
    09:00 +23°C° 0 mm 4 mps 700 mmHg 82%
    10:00 +25°C° 0.4 mm 4 mps 699 mmHg 80%
    11:00 +26°C° 0.4 mm 4 mps 699 mmHg 78%
    12:00 +27°C° 0.4 mm 4 mps 699 mmHg 76%
    13:00 +27°C° 0.9 mm 3 mps 698 mmHg 76%
    14:00 +27°C° 0.9 mm 3 mps 698 mmHg 76%
    15:00 +28°C° 0.9 mm 3 mps 697 mmHg 76%
    16:00 +27°C° 1.2 mm 2 mps 697 mmHg 80%
    17:00 +26°C° 1.2 mm 2 mps 697 mmHg 85%
    18:00 +25°C° 1.2 mm 2 mps 697 mmHg 89%
    19:00 +24°C° 1.6 mm 2 mps 697 mmHg 90%
    20:00 +23°C° 1.6 mm 2 mps 698 mmHg 90%
    21:00 +21°C° 1.6 mm 2 mps 699 mmHg 91%
    22:00 +21°C° 0.7 mm 2 mps 699 mmHg 92%
    23:00 +21°C° 0.7 mm 2 mps 699 mmHg 92%

    23 November, Friday

    Time Temperature Precipitation Wind Pressure Humidity
    00:00 +21°C° 0.7 mm 2 mps 698 mmHg 93%
    01:00 +21°C° 0 mm 2 mps 698 mmHg 93%
    02:00 +20°C° 0 mm 2 mps 697 mmHg 93%
    03:00 +20°C° 0 mm 2 mps 697 mmHg 93%
    04:00 +20°C° 0 mm 2 mps 697 mmHg 93%
    05:00 +20°C° 0 mm 2 mps 697 mmHg 93%
    06:00 +20°C° 0 mm 2 mps 698 mmHg 93%
    07:00 +21°C° 0 mm 3 mps 698 mmHg 90%
    08:00 +22°C° 0 mm 4 mps 698 mmHg 87%
    09:00 +25°C° 0 mm 4 mps 699 mmHg 84%
    10:00 +26°C° 0.1 mm 4 mps 699 mmHg 79%
    11:00 +27°C° 0.1 mm 4 mps 699 mmHg 73%
    12:00 +28°C° 0.1 mm 4 mps 698 mmHg 68%
    13:00 +28°C° 1 mm 3 mps 698 mmHg 70%
    14:00 +28°C° 1 mm 3 mps 697 mmHg 72%
    15:00 +28°C° 1 mm 2 mps 696 mmHg 74%
    16:00 +27°C° 0.9 mm 2 mps 696 mmHg 78%
    17:00 +26°C° 0.9 mm 1 mps 697 mmHg 82%
    18:00 +25°C° 0.9 mm 1 mps 697 mmHg 86%
    19:00 +24°C° 0.6 mm 1 mps 697 mmHg 88%
    20:00 +23°C° 0.6 mm 1 mps 697 mmHg 90%
    21:00 +22°C° 0.6 mm 1 mps 698 mmHg 92%
    22:00 +22°C° 1.1 mm 1 mps 698 mmHg 93%
    23:00 +22°C° 1.1 mm 1 mps 698 mmHg 94%

    24 November, Saturday

    Time Temperature Precipitation Wind Pressure Humidity
    00:00 +22°C° 1.1 mm 1 mps 698 mmHg 95%
    01:00 +21°C° 1.4 mm 2 mps 697 mmHg 94%
    02:00 +21°C° 1.4 mm 2 mps 697 mmHg 93%
    03:00 +21°C° 1.4 mm 2 mps 697 mmHg 92%
    04:00 +21°C° 0.2 mm 2 mps 697 mmHg 92%
    05:00 +21°C° 0.2 mm 2 mps 697 mmHg 93%
    06:00 +20°C° 0.2 mm 2 mps 697 mmHg 94%
    07:00 +23°C° 0 mm 2 mps 698 mmHg 90%
    08:00 +24°C° 0 mm 3 mps 698 mmHg 87%
    09:00 +25°C° 0 mm 3 mps 699 mmHg 84%
    10:00 +26°C° 0.1 mm 3 mps 698 mmHg 79%
    11:00 +27°C° 0.1 mm 3 mps 698 mmHg 75%
    12:00 +28°C° 0.1 mm 3 mps 698 mmHg 71%
    13:00 +28°C° 0.1 mm 3 mps 697 mmHg 70%
    14:00 +28°C° 0.1 mm 3 mps 697 mmHg 70%
    15:00 +28°C° 0.1 mm 3 mps 696 mmHg 69%
    16:00 +27°C° 0.1 mm 3 mps 696 mmHg 75%
    17:00 +26°C° 0.1 mm 2 mps 696 mmHg 82%
    18:00 +24°C° 0.1 mm 1 mps 696 mmHg 88%
    19:00 +24°C° 0.4 mm 1 mps 696 mmHg 90%
    20:00 +23°C° 0.4 mm 1 mps 697 mmHg 91%
    21:00 +23°C° 0.4 mm 1 mps 697 mmHg 93%
    22:00 +23°C° 0.4 mm 1 mps 697 mmHg 93%
    23:00 +23°C° 0.4 mm 2 mps 697 mmHg 93%
    Show more